![]() |
EMODnet Physics ERDDAP
Easier access to scientific data |
log in|
Brought to you by EMODnet Physics |
| Dataset Title: | NDBC - Collection of dew point temperature (DEWT) TimeSeries - IN SITU MultiPointTimeSeriesObservation
|
| Institution: | NDBC (Dataset ID: TS_DEWT_NDBC) |
| Information: | Summary
| License
| FGDC
| ISO 19115
| Metadata
| Background
| Subset
| Data Access Form
| Make a graph
|
| Name | Last modified | Size | Description | |
|---|---|---|---|---|
| Parent Directory | - | - | ||
| MEYC1_TS_DEWT_012017.nc | 27-Oct-2024 13:55 | 429805 | ||
| MEYC1_TS_DEWT_012018.nc | 27-Oct-2024 13:55 | 429656 | ||
| MEYC1_TS_DEWT_012019.nc | 27-Oct-2024 13:55 | 429713 | ||
| MEYC1_TS_DEWT_012020.nc | 27-Oct-2024 13:55 | 429810 | ||
| MEYC1_TS_DEWT_012021.nc | 27-Oct-2024 13:55 | 429818 | ||
| MEYC1_TS_DEWT_012022.nc | 27-Oct-2024 13:55 | 429814 | ||
| MEYC1_TS_DEWT_022017.nc | 27-Oct-2024 13:55 | 429824 | ||
| MEYC1_TS_DEWT_022018.nc | 27-Oct-2024 13:55 | 429833 | ||
| MEYC1_TS_DEWT_022019.nc | 27-Oct-2024 13:55 | 429833 | ||
| MEYC1_TS_DEWT_022020.nc | 27-Oct-2024 13:55 | 429834 | ||
| MEYC1_TS_DEWT_022021.nc | 27-Oct-2024 13:55 | 1144063 | ||
| MEYC1_TS_DEWT_022022.nc | 27-Oct-2024 13:56 | 912813 | ||
| MEYC1_TS_DEWT_022023.nc | 27-Oct-2024 13:56 | 1262941 | ||
| MEYC1_TS_DEWT_032017.nc | 27-Oct-2024 13:56 | 1144031 | ||
| MEYC1_TS_DEWT_032018.nc | 27-Oct-2024 13:56 | 1144244 | ||
| MEYC1_TS_DEWT_032019.nc | 27-Oct-2024 13:56 | 1144168 | ||
| MEYC1_TS_DEWT_032020.nc | 27-Oct-2024 13:56 | 428457 | ||
| MEYC1_TS_DEWT_032021.nc | 27-Oct-2024 13:56 | 428603 | ||
| MEYC1_TS_DEWT_032022.nc | 27-Oct-2024 13:56 | 428961 | ||
| MEYC1_TS_DEWT_032023.nc | 27-Oct-2024 13:56 | 446116 | ||
| MEYC1_TS_DEWT_042017.nc | 27-Oct-2024 13:56 | 446426 | ||
| MEYC1_TS_DEWT_042018.nc | 27-Oct-2024 13:56 | 447236 | ||
| MEYC1_TS_DEWT_042019.nc | 27-Oct-2024 13:56 | 428959 | ||
| MEYC1_TS_DEWT_042020.nc | 27-Oct-2024 13:56 | 446648 | ||
| MEYC1_TS_DEWT_042021.nc | 27-Oct-2024 13:56 | 447729 | ||
| MEYC1_TS_DEWT_042022.nc | 27-Oct-2024 13:56 | 449235 | ||
| MEYC1_TS_DEWT_042023.nc | 27-Oct-2024 13:57 | 445309 | ||
| MEYC1_TS_DEWT_052017.nc | 27-Oct-2024 13:57 | 428745 | ||
| MEYC1_TS_DEWT_052018.nc | 27-Oct-2024 13:57 | 428763 | ||
| MEYC1_TS_DEWT_052019.nc | 27-Oct-2024 13:57 | 429155 | ||
| MEYC1_TS_DEWT_052020.nc | 27-Oct-2024 13:57 | 428550 | ||
| MEYC1_TS_DEWT_052021.nc | 27-Oct-2024 13:57 | 428805 | ||
| MEYC1_TS_DEWT_052022.nc | 27-Oct-2024 13:57 | 428807 | ||
| MEYC1_TS_DEWT_052023.nc | 27-Oct-2024 13:57 | 429137 | ||
| MEYC1_TS_DEWT_062016.nc | 27-Oct-2024 13:57 | 428278 | ||
| MEYC1_TS_DEWT_062017.nc | 27-Oct-2024 13:57 | 428805 | ||
| MEYC1_TS_DEWT_062018.nc | 27-Oct-2024 13:57 | 428806 | ||
| MEYC1_TS_DEWT_062019.nc | 27-Oct-2024 13:57 | 429156 | ||
| MEYC1_TS_DEWT_062020.nc | 27-Oct-2024 13:57 | 428803 | ||
| MEYC1_TS_DEWT_062021.nc | 27-Oct-2024 13:57 | 918115 | ||
| MEYC1_TS_DEWT_062022.nc | 27-Oct-2024 13:58 | 909336 | ||
| MEYC1_TS_DEWT_062023.nc | 27-Oct-2024 13:58 | 1108662 | ||
| MEYC1_TS_DEWT_072016.nc | 27-Oct-2024 13:58 | 918015 | ||
| MEYC1_TS_DEWT_072017.nc | 27-Oct-2024 13:58 | 918156 | ||
| MEYC1_TS_DEWT_072018.nc | 27-Oct-2024 13:58 | 918136 | ||
| MEYC1_TS_DEWT_072019.nc | 27-Oct-2024 13:58 | 429604 | ||
| MEYC1_TS_DEWT_072020.nc | 27-Oct-2024 13:58 | 450866 | ||
| MEYC1_TS_DEWT_072021.nc | 27-Oct-2024 13:58 | 433644 | ||
| MEYC1_TS_DEWT_072022.nc | 27-Oct-2024 13:58 | 449755 | ||
| MEYC1_TS_DEWT_072023.nc | 27-Oct-2024 13:58 | 449526 | ||
| MEYC1_TS_DEWT_082016.nc | 27-Oct-2024 13:58 | 449977 | ||
| MEYC1_TS_DEWT_082017.nc | 27-Oct-2024 13:58 | 429617 | ||
| MEYC1_TS_DEWT_082018.nc | 27-Oct-2024 13:58 | 450506 | ||
| MEYC1_TS_DEWT_082019.nc | 27-Oct-2024 13:58 | 450120 | ||
| MEYC1_TS_DEWT_082020.nc | 27-Oct-2024 13:59 | 449665 | ||
| MEYC1_TS_DEWT_082021.nc | 27-Oct-2024 13:59 | 448976 | ||
| MEYC1_TS_DEWT_082022.nc | 27-Oct-2024 13:59 | 429791 | ||
| MEYC1_TS_DEWT_082023.nc | 27-Oct-2024 13:59 | 429798 | ||
| MEYC1_TS_DEWT_092016.nc | 27-Oct-2024 13:59 | 429762 | ||
| MEYC1_TS_DEWT_092017.nc | 27-Oct-2024 13:59 | 429694 | ||
| MEYC1_TS_DEWT_092018.nc | 27-Oct-2024 13:59 | 429832 | ||
| MEYC1_TS_DEWT_092019.nc | 27-Oct-2024 13:59 | 429831 | ||
| MEYC1_TS_DEWT_092020.nc | 27-Oct-2024 13:59 | 429102 | ||
| MEYC1_TS_DEWT_092021.nc | 27-Oct-2024 13:59 | 429662 | ||
| MEYC1_TS_DEWT_092022.nc | 27-Oct-2024 13:59 | 425923 | ||
| MEYC1_TS_DEWT_092023.nc | 27-Oct-2024 13:59 | 429838 | ||
| MEYC1_TS_DEWT_102016.nc | 27-Oct-2024 13:59 | 429830 | ||
| MEYC1_TS_DEWT_102017.nc | 27-Oct-2024 13:59 | 429917 | ||
| MEYC1_TS_DEWT_102019.nc | 27-Oct-2024 13:59 | 910154 | ||
| MEYC1_TS_DEWT_102020.nc | 27-Oct-2024 13:59 | 1264406 | ||
| MEYC1_TS_DEWT_102021.nc | 27-Oct-2024 14:00 | 910453 | ||
| MEYC1_TS_DEWT_102022.nc | 27-Oct-2024 14:00 | 1144032 | ||
| MEYC1_TS_DEWT_102023.nc | 27-Oct-2024 14:00 | 1144240 | ||
| MEYC1_TS_DEWT_112016.nc | 27-Oct-2024 14:00 | 429290 | ||
| MEYC1_TS_DEWT_112017.nc | 27-Oct-2024 14:00 | 448269 | ||
| MEYC1_TS_DEWT_112018.nc | 27-Oct-2024 14:00 | 449214 | ||
| MEYC1_TS_DEWT_112019.nc | 27-Oct-2024 14:00 | 449628 | ||
| MEYC1_TS_DEWT_112020.nc | 27-Oct-2024 14:00 | 448443 | ||
| MEYC1_TS_DEWT_112021.nc | 27-Oct-2024 14:00 | 449804 | ||
| MEYC1_TS_DEWT_112022.nc | 27-Oct-2024 14:00 | 446837 | ||
| MEYC1_TS_DEWT_112023.nc | 27-Oct-2024 14:00 | 449129 | ||
| MEYC1_TS_DEWT_122016.nc | 27-Oct-2024 14:00 | 450175 | ||
| MEYC1_TS_DEWT_122017.nc | 27-Oct-2024 14:00 | 450002 | ||
| MEYC1_TS_DEWT_122018.nc | 27-Oct-2024 14:00 | 448361 | ||
| MEYC1_TS_DEWT_122019.nc | 27-Oct-2024 14:00 | 429384 | ||
| MEYC1_TS_DEWT_122020.nc | 27-Oct-2024 14:00 | 429313 | ||
| MEYC1_TS_DEWT_122021.nc | 27-Oct-2024 14:01 | 429124 | ||
| MEYC1_TS_DEWT_122022.nc | 27-Oct-2024 14:01 | 429394 | ||
| MEYC1_TS_DEWT_122023.nc | 27-Oct-2024 14:01 | 429491 | ||